Vertical_Velocity
3 3 4 2 0 -0 -0 1 -2 1 1 0 -1 -0 -2 3 5 5 -2 6 6 1 1 -3 11 -2 -8 6 -5 8 -3 3 -2 1 -2 2 1 -1 -0 1 -1 -1 -2
-0 -1 2 1 1 1 -1 1 4 -0 2 -1 2 3 4 9 3 8 2 3 5 -3 -6 0 4 8 2 1 -4 6 -3 -1 1 0 0 -0 1 0 -2 -0 0 -2 -2
1 1 0 1 -0 0 2 2 -0 3 1 -2 -1 -2 -4 0 -3 0 9 3 -1 -3 -0 -7 -1 5 10 4 -4 -5 1 3 -1 1 3 -3 -2 0 0 -1 -1 0 -2
2 3 2 -1 2 0 2 -0 -0 -1 -3 -2 1 3 5 12 7 4 4 3 4 -3 7 2 -1 -2 -0 -7 -1 -2 -4 4 -4 0 0 -2 -1 0 0 -1 -5 -1 -3
2 1 3 -1 -1 1 -0 1 1 0 -1 -1 1 -2 -2 0 -1 3 6 -1 -1 -1 3 -4 -1 3 -2 2 -1 1 -1 2 -4 -0 -1 1 -7 1 -3 1 -2 0 -2
3 1 1 0 -3 -0 -1 -2 -1 0 -1 -2 -2 -1 -1 -4 -3 0 8 1 -4 2 -2 -7 -2 7 4 -15 -11 3 9 3 -1 1 0 -5 -3 -3 2 0 0 0 -7
3 3 2 -4 1 -2 0 0 -3 -1 2 -2 -4 -1 1 6 -4 0 -1 2 -0 -6 -3 3 -0 -1 -1 4 7 11 5 -4 3 1 -2 -7 2 1 5 5 -1 -1 3
2 3 -0 -1 7 8 -1 -3 0 -1 2 -1 -3 -3 3 -0 7 7 -2 5 3 3 2 5 2 5 -0 -1 2 -1 1 1 -4 -10 -6 6 -2 1 0 3 3 -1 -2
4 3 3 0 2 2 3 1 -4 3 1 -0 -0 -1 -4 3 -5 11 -5 3 -3 7 7 -0 -1 -5 1 1 2 2 1 -5 3 4 5 5 2 -3 3 -1 -2 2 -3
2 3 4 3 -2 -2 3 7 -0 2 0 -2 2 3 -0 3 0 -3 4 2 -3 -0 2 -2 -6 -7 1 -3 -2 -0 0 4 4 3 0 -1 2 4 -1 1 1 1 5
-1 1 3 3 -2 -2 -0 3 2 2 8 3 2 3 -1 -1 6 1 -2 -1 0 3 -1 -2 1 3 0 3 1 -3 -4 7 7 2 -1 -3 3 2 3 2 1 0 -1
-0 0 2 3 2 -2 -1 1 1 4 1 0 3 1 -1 -2 -2 3 -2 0 2 -5 3 0 4 5 1 -5 7 9 7 3 -0 2 6 -2 -3 -1 3 1 3 -2 -5
-2 -3 2 2 0 -0 -1 -2 5 2 4 1 -4 6 4 0 -2 8 11 3 13 1 8 2 4 8 8 17 4 4 -2 6 -1 -1 7 2 3 2 1 1 2 0 2
-3 -2 5 5 -2 -1 -0 -2 -2 4 3 3 1 8 -4 -3 -2 2 -2 1 9 3 -2 -6 4 -4 -3 3 9 2 6 2 2 2 1 1 -0 -2 0 -0 -0 3 -3
0 1 -3 10 -0 -6 -1 -2 2 -3 2 2 5 2 2 -9 5 2 3 -7 -3 8 6 -2 5 -2 3 3 3 1 4 3 0 1 0 -1 -2 1 0 1 2 1 1
1 -1 -2 10 1 -6 0 -2 -2 -1 -1 2 7 -0 -2 4 1 -1 2 4 1 4 2 0 -1 -1 2 -0 -1 -1 -2 -3 -3 -0 -1 -1 -0 3 2 1 1 1 -0
-1 -4 5 10 4 -2 4 0 -3 0 1 8 4 8 2 -3 2 -3 1 -2 2 -1 0 -2 -1 0 -0 -1 -1 -1 1 -0 -0 1 -2 -0 -2 -2 -1 -1 -1 0 -1
-2 2 7 -3 4 2 8 3 1 4 -1 -4 9 7 4 2 5 1 3 2 3 1 3 2 1 0 -2 -1 -0 0 -1 -1 -1 -0 -2 -1 -1 -2 -1 -0 -2 -2 -2
-1 -0 6 0 7 4 2 2 10 3 -0 -4 -2 2 2 2 3 -1 -2 3 -1 -1 1 -1 -0 -0 -1 0 -0 -0 -1 -1 -2 -3 -5 -2 -2 -0 0 0 0 -1 -1
0 2 4 5 2 3 4 2 11 5 3 1 -1 1 -1 3 0 1 2 -3 -3 -2 0 0 -1 -1 -0 1 -0 2 -0 -1 0 3 3 2 1 0 -1 -0 -0 -1 -1
-0 1 4 0 1 6 3 4 4 12 7 6 7 5 2 2 1 -1 -3 -0 0 -0 -2 -0 -2 -3 -3 -4 -3 -2 -1 -1 1 -2 -2 -1 1 0 -1 -1 -2 -1 1
3 3 10 4 6 2 5 3 3 5 11 9 1 6 10 6 0 1 0 2 2 3 -0 0 1 -1 -3 -2 -3 -2 -1 -0 -3 -4 -3 -4 -3 -2 1 0 -1 -2 -2
1 -4 8 4 8 7 -3 2 4 2 3 9 11 6 3 10 6 -1 1 -3 1 -0 -2 0 1 2 3 2 4 -4 1 9 4 -0 -1 -3 -1 -0 -1 -5 -6 -4 -2
-2 -5 5 6 5 5 -4 -4 1 -0 -1 1 3 7 11 3 4 0 2 -1 5 1 2 5 2 5 1 -2 -7 -7 -4 5 1 2 4 3 -1 -2 -0 1 3 -2 -2
-6 0 3 -1 0 5 1 -2 2 -6 -3 -2 2 2 3 6 4 5 1 -1 2 2 1 6 4 -3 -2 -9 -2 2 2 3 -2 -5 -4 0 0 2 2 1 -3 -1 1
4 5 -1 -0 3 6 11 3 -1 -4 -6 -1 2 5 0 12 6 12 -2 -5 -3 2 3 -2 -1 -3 -5 -5 2 5 -1 6 0 -2 -1 -2 -5 -2 -4 1 2 1 0
Height
1447 1449 1452 1454 1456 1458 1460 1462 1465 1468 1470 1472 1474 1477 1480 1483 1486 1490 1494 1499 1503 1507 1513 1520 1526 1530 1535 1538 1546 1551 1555 1558 1560 1561 1561 1562 1562 1563 1565 1565 1567 1569 1572
1445 1447 1449 1451 1453 1455 1457 1459 1460 1462 1463 1464 1467 1469 1472 1475 1478 1482 1485 1490 1495 1499 1507 1514 1519 1524 1528 1533 1539 1544 1549 1552 1556 1558 1557 1558 1559 1560 1562 1563 1564 1566 1568
1443 1444 1446 1448 1449 1451 1452 1453 1454 1455 1456 1458 1461 1463 1466 1469 1473 1477 1481 1486 1491 1496 1502 1509 1514 1519 1524 1527 1531 1538 1541 1546 1549 1552 1553 1552 1555 1556 1557 1558 1561 1562 1564
1440 1441 1442 1444 1446 1447 1448 1449 1449 1450 1450 1453 1456 1459 1462 1464 1467 1472 1477 1482 1487 1493 1498 1503 1508 1513 1518 1522 1526 1533 1534 1540 1542 1546 1547 1547 1550 1552 1552 1553 1557 1558 1560
1439 1439 1440 1441 1442 1443 1444 1444 1445 1445 1446 1449 1452 1455 1458 1461 1463 1467 1472 1478 1482 1487 1493 1498 1502 1508 1513 1518 1522 1526 1530 1533 1536 1539 1540 1541 1544 1546 1547 1549 1551 1553 1555
1437 1437 1437 1438 1438 1439 1440 1441 1442 1442 1443 1445 1448 1451 1454 1457 1459 1463 1468 1474 1479 1484 1488 1492 1497 1502 1506 1512 1518 1522 1525 1525 1530 1531 1532 1536 1538 1540 1543 1543 1546 1546 1547
1437 1435 1435 1436 1435 1436 1437 1438 1440 1440 1441 1443 1445 1448 1450 1454 1456 1460 1464 1469 1473 1478 1484 1487 1491 1495 1500 1507 1511 1514 1514 1519 1522 1525 1527 1531 1533 1535 1537 1538 1539 1540 1543
1435 1434 1433 1433 1432 1433 1434 1435 1436 1438 1439 1441 1443 1446 1448 1451 1454 1456 1460 1465 1470 1474 1477 1483 1486 1490 1494 1499 1503 1506 1509 1512 1515 1519 1523 1525 1527 1529 1530 1533 1533 1534 1535
1434 1433 1431 1431 1429 1430 1430 1431 1432 1434 1436 1438 1440 1443 1446 1448 1452 1455 1458 1462 1466 1470 1472 1476 1479 1484 1490 1493 1497 1500 1504 1507 1511 1514 1517 1519 1520 1522 1524 1525 1527 1529 1528
1432 1432 1430 1429 1429 1428 1428 1428 1429 1430 1431 1435 1436 1437 1441 1445 1448 1451 1454 1457 1461 1464 1468 1472 1476 1481 1485 1488 1491 1495 1499 1502 1506 1508 1510 1512 1515 1516 1517 1520 1521 1522 1522
1429 1429 1429 1428 1427 1426 1426 1426 1427 1427 1427 1430 1432 1435 1436 1439 1441 1446 1448 1452 1456 1459 1463 1466 1470 1475 1479 1483 1487 1491 1494 1498 1500 1501 1504 1507 1508 1510 1512 1514 1515 1516 1518
1427 1427 1428 1427 1425 1425 1424 1423 1423 1423 1424 1426 1428 1431 1433 1436 1438 1440 1444 1448 1452 1456 1459 1463 1467 1470 1474 1479 1482 1484 1488 1492 1495 1497 1499 1500 1504 1506 1508 1509 1510 1511 1513
1423 1423 1426 1425 1423 1422 1422 1421 1421 1420 1421 1423 1424 1426 1428 1431 1435 1438 1440 1444 1446 1452 1455 1460 1463 1467 1471 1473 1477 1480 1483 1486 1490 1492 1494 1496 1500 1501 1502 1504 1505 1507 1509
1422 1421 1423 1421 1420 1419 1419 1420 1420 1419 1419 1420 1420 1423 1426 1428 1431 1433 1438 1440 1443 1448 1452 1455 1459 1463 1467 1469 1472 1475 1478 1481 1484 1487 1490 1491 1494 1497 1498 1500 1502 1503 1504
1419 1418 1419 1419 1417 1417 1418 1419 1418 1418 1418 1419 1420 1422 1424 1426 1428 1431 1434 1438 1441 1442 1446 1451 1455 1459 1462 1464 1468 1472 1475 1477 1480 1483 1486 1488 1491 1493 1494 1496 1498 1500 1501
1415 1414 1416 1414 1412 1413 1415 1416 1417 1417 1418 1418 1419 1422 1424 1427 1428 1432 1434 1437 1440 1444 1447 1451 1454 1459 1462 1464 1467 1470 1473 1476 1479 1481 1484 1486 1489 1490 1492 1493 1495 1496 1498
1412 1411 1412 1408 1409 1411 1412 1413 1414 1416 1416 1418 1419 1421 1424 1426 1428 1432 1435 1437 1441 1444 1447 1451 1454 1458 1460 1462 1466 1469 1472 1474 1477 1479 1482 1484 1487 1489 1491 1492 1493 1493 1495
1410 1408 1405 1406 1407 1408 1409 1411 1413 1413 1415 1417 1419 1421 1422 1425 1427 1430 1433 1437 1439 1443 1447 1449 1453 1455 1459 1462 1465 1469 1471 1474 1476 1478 1481 1484 1486 1487 1489 1490 1492 1492 1494
1407 1405 1402 1405 1405 1404 1407 1410 1412 1413 1414 1415 1417 1420 1423 1424 1426 1429 1433 1436 1439 1443 1446 1449 1453 1456 1460 1464 1467 1469 1471 1474 1476 1478 1482 1483 1484 1486 1488 1489 1490 1491 1493
1408 1406 1404 1404 1403 1404 1404 1408 1410 1410 1412 1414 1417 1419 1421 1425 1427 1430 1433 1436 1440 1444 1447 1451 1453 1457 1460 1464 1467 1469 1470 1473 1475 1478 1480 1481 1483 1485 1486 1488 1489 1490 1491
1409 1407 1406 1404 1402 1400 1402 1405 1409 1410 1411 1413 1416 1419 1422 1424 1425 1429 1434 1437 1440 1444 1448 1451 1454 1457 1460 1463 1466 1468 1470 1472 1474 1476 1478 1480 1482 1483 1484 1485 1486 1487 1488
1413 1411 1408 1404 1401 1401 1402 1405 1407 1409 1412 1412 1414 1418 1422 1423 1425 1429 1434 1438 1441 1444 1447 1451 1454 1457 1460 1462 1465 1467 1469 1470 1471 1474 1476 1478 1479 1480 1481 1482 1483 1484 1484
1417 1415 1413 1409 1406 1402 1403 1408 1410 1411 1413 1414 1416 1418 1420 1423 1423 1427 1432 1437 1441 1443 1447 1450 1452 1454 1456 1459 1462 1465 1470 1469 1468 1470 1472 1474 1476 1476 1477 1477 1479 1480 1480
1422 1421 1417 1414 1412 1410 1409 1413 1412 1412 1416 1417 1419 1420 1419 1421 1422 1425 1430 1435 1440 1442 1446 1449 1450 1453 1454 1457 1461 1464 1467 1466 1466 1468 1469 1470 1471 1473 1473 1475 1475 1474 1475
1426 1423 1418 1414 1413 1415 1415 1415 1414 1415 1420 1421 1424 1424 1425 1424 1425 1425 1427 1432 1437 1441 1445 1447 1448 1451 1453 1458 1462 1462 1463 1462 1463 1464 1467 1468 1470 1470 1471 1471 1471 1472 1471
1424 1421 1419 1419 1417 1418 1416 1414 1414 1419 1424 1424 1427 1426 1427 1425 1424 1422 1424 1431 1438 1442 1444 1445 1448 1449 1453 1456 1460 1458 1459 1460 1459 1460 1462 1464 1466 1468 1469 1470 1469 1469 1468